Flag for Ireland Weather past 2 weeks in Galway, Ireland

Now
61 °F

Scattered clouds.


Feels Like: 61 °F
Forecast: 54 / 65 °F
Wind: 12 mph from West

Location: Shannon Airport

Current Time: Jul 5, 2015 at 8:26:46 PM

Latest Report: Jul 5, 2015 at 8:00 PM


Visibility: N/A

Pressure: 29.92 "Hg

Humidity: 68%

Dew point: 50 °F

Location of GalwayLocation

Historic Weather in Galway — Graph

°F

Galway temperature yesterday

Maximum temperature yesterday: 66 °F (at 2:30 PM)
Minimum temperature yesterday: 57 °F (at 11:00 PM)
Average temperature yesterday: 62 °F

Past Weeks' High & Low Weather Summary

 TemperatureHumidityPressure
High72 °F (Jun 30, 3:00 PM)100% (Jun 23, 3:00 AM)30.12 "Hg (Jun 23, 3:00 AM)
Low48 °F (Jun 22, 5:00 AM)49% (Jul 4, 2:30 PM)29.68 "Hg (Jul 4, 4:30 AM)
Average61 °F79%29.96 "Hg
* Reported Jun 20 7:00 PM — Jul 5 7:00 PM, Galway, Weather by CustomWeather, © 2015

Note: Actual official high and low records may vary slightly from our data, if they occured in-between our weather recording intervals... More about our weather records

Advertising

Galway weather history for previous 24 hours

 ConditionsComfort  
Time TempWeatherWind HumidityBarometerVisibility
7:00 PM
Sun, Jul 5
64 °FPassing clouds.14 mph60%29.92 "HgN/A
6:30 PM64 °FPassing clouds.14 mph56%29.92 "HgN/A
6:00 PM64 °FPassing clouds.15 mph56%29.92 "HgN/A
5:30 PM64 °FPassing clouds.15 mph64%29.92 "HgN/A
5:00 PM63 °FPartly sunny.16 mph64%29.92 "HgN/A
4:30 PM64 °FBroken clouds.14 mph64%29.89 "HgN/A
4:00 PM64 °FScattered clouds.14 mph60%29.89 "HgN/A
3:30 PM63 °FBroken clouds.8 mph68%29.89 "HgN/A
3:00 PM63 °FBroken clouds.9 mph68%29.89 "HgN/A
2:30 PM64 °FScattered clouds.9 mph68%29.89 "HgN/A
2:00 PM61 °FScattered clouds.10 mph83%29.89 "HgN/A
1:30 PM63 °FScattered clouds.8 mph73%29.89 "HgN/A
1:00 PM59 °FSprinkles. Broken clouds.12 mph82%29.89 "HgN/A
12:30 PM61 °FBroken clouds.3 mph77%29.86 "HgN/A
12:00 PM59 °FSprinkles. Broken clouds.5 mph82%29.86 "HgN/A
11:30 AM59 °FSprinkles. Partly sunny.8 mph77%29.89 "Hg6 mi
11:00 AM61 °FBroken clouds.6 mph77%29.86 "HgN/A
10:30 AM61 °FSprinkles. Broken clouds.6 mph72%29.89 "HgN/A
10:00 AM61 °FSprinkles. Broken clouds.9 mph77%29.89 "HgN/A
9:30 AM59 °FScattered clouds.6 mph82%29.89 "HgN/A
9:00 AM59 °FBroken clouds.8 mph88%29.89 "HgN/A
8:30 AM57 °FScattered clouds.10 mph94%29.89 "HgN/A
8:00 AM57 °FBroken clouds.10 mph88%29.89 "HgN/A
7:30 AM55 °FBroken clouds.9 mph94%29.89 "HgN/A
7:00 AM55 °FSprinkles. Broken clouds.8 mph94%29.89 "HgN/A
6:30 AM55 °FSprinkles. Broken clouds.7 mph94%29.89 "Hg5 mi
6:00 AM55 °FPassing clouds.10 mph88%29.89 "HgN/A
5:30 AM54 °FPassing clouds.10 mph94%29.89 "HgN/A
4:30 AM54 °FPassing clouds.10 mph94%29.92 "HgN/A
4:00 AM54 °FPassing clouds.10 mph94%29.92 "HgN/A
3:30 AM54 °FPassing clouds.10 mph94%29.92 "HgN/A
3:00 AM54 °FPassing clouds.7 mph94%29.92 "HgN/A
2:30 AM54 °FPassing clouds.6 mph94%29.95 "HgN/A
2:00 AM54 °FPassing clouds.9 mph94%29.95 "HgN/A
1:30 AM54 °FPassing clouds.7 mph94%29.95 "HgN/A
1:00 AM54 °FPassing clouds.9 mph94%29.95 "HgN/A
12:30 AM55 °FPassing clouds.10 mph88%29.95 "HgN/A
12:00 AM55 °FPassing clouds.12 mph88%29.95 "HgN/A
11:30 PM
Sat, Jul 4
57 °FPassing clouds.9 mph82%29.95 "HgN/A
11:00 PM57 °FPassing clouds.10 mph82%29.95 "HgN/A
10:30 PM59 °FScattered clouds.10 mph77%29.95 "HgN/A
10:00 PM59 °FScattered clouds.13 mph72%29.95 "HgN/A
9:30 PM61 °FPassing clouds.10 mph68%29.95 "HgN/A
9:00 PM61 °FPassing clouds.14 mph68%29.95 "HgN/A
8:30 PM63 °FScattered clouds.15 mph68%29.92 "HgN/A
8:00 PM61 °FPassing clouds.13 mph72%29.92 "HgN/A
Weather by CustomWeather, © 2015

See weather overviewHow to use our weather pages